Simultaneous Nadir Overpasses (SNOs) Predictions

Prediction of SNOs between GOES-17 and FY3D Satellite Orbit:

Table of predicted SNOs for the next 14.0 days since TLE Epoch: 1/27/2024
Index Date Time (GOES-17) GOES-17 Lat,Lon FY3D Lat,Lon Distance(km) Time Diff (sec)
1 01/27/2024 21:21:59 -0.02,-104.65 -0.22,-105.59 106.66 80
2 01/28/2024 21:06:10 -0.02,-104.65 0.79,-101.11 404.20 80
3 01/30/2024 09:28:21 0.03,-104.69 0.45,-106.43 199.86 80
4 01/31/2024 09:07:14 0.02,-104.69 -0.62,-101.97 310.92 80
5 02/01/2024 21:29:34 -0.03,-104.65 -0.62,-107.33 305.19 80
6 02/02/2024 21:13:46 -0.03,-104.65 0.40,-102.86 205.64 80
7 02/04/2024 09:35:57 0.03,-104.69 0.84,-108.18 398.49 80
8 02/05/2024 09:14:49 0.03,-104.69 -0.18,-103.70 111.94 80
9 02/07/2024 21:18:41 -0.04,-104.64 -0.00,-104.60 6.08 80
